Weather in Maloyaz

Russia / Republic of Bashkortostan     55°10′47″N   58°09′21″E
temp.,
°C
wind,
m/s
gust,
m/s
humid.,
%
clouds,
%
prec.,
mm/h
press.,
hPa
HPBL,
m
6 august, fri
fri623:00+17wsw24941 0.6 1010102
02:00+15w119724 0.0 101113
05:00+15w129899 0.0 101149
08:00+15nnw458956 0.1 1012477
11:00+18nnw576752 0.1 10121046
14:00+22nnw67390 0.0 10121832
17:00+22nnw67390 0.0 10121935
20:00+17nnw49550 0.0 1013259
7 august, sat
sat723:00+12nw22710 0.0 101511
02:00+10w11810 0.0 101510
05:00+8wsw118637 0.0 101611
08:00+13wnw246987 0.0 1017280
11:00+18nw575114 0.0 10161403
14:00+21nw674033 0.0 10151743
17:00+21nnw673937 0.0 10151913
20:00+16n486036 0.0 1017315
8 august, sun
sun823:00+10wnw22780 0.0 101724
02:00+9w11860 0.0 101810
05:00+8wsw22900 0.0 101921
08:00+13nw5117333 0.0 1019600
11:00+17nnw566557 0.0 1018972
14:00+20n675997 0.0 10181360
17:00+20nne466286 0.0 10191092
20:00+19nne3866100 0.0 1019353
9 august, mon
mon923:00+17nw2271100 0.0 102030
02:00+16wnw118096 0.0 102025
05:00+12nw119262 0.0 102111
08:00+15nnw13805 0.0 1022305
11:00+20n345685 0.0 1021977
14:00+23nnw344110 0.0 10211505
17:00+24nnw453976 0.0 10201637
20:00+19nnw2358100 0.0 102044
10 august, tue
tue1023:00+14nnw117024 0.0 102111
02:00+14sw117228 0.0 102110
05:00+12sw11815 0.0 102111
08:00+16ssw226667 0.0 1020162
11:00+20ne1157100 0.1 1020510
14:00+23wsw35513 0.6 10181111
17:00+25wnw134763 0.6 10161043
20:00+21ese22653 0.0 101516